Temp
37 33 29 34 43 37 36 34 35 38 43 40 38 41 46 52 48 46 51 55 56 55 60 60 58 57 57 56 56 56 55 54 52 49 48 48 49 49 48 49 50 50 51 49
33 31 38 36 36 37 35 33 34 37 41 40 38 40 46 49 51 53 55 56 58 60 57 60 58 56 56 56 56 56 56 54 53 53 52 50 49 48 51 49 49 50 50 49
35 37 37 38 33 34 33 34 32 35 37 36 34 39 46 45 48 51 55 57 57 58 60 56 56 55 55 55 56 57 56 54 55 55 49 46 47 46 47 47 48 48 49 47
35 37 35 33 34 36 33 34 35 34 33 27 31 29 41 45 51 46 49 52 53 54 54 55 55 54 54 56 58 58 57 55 55 52 51 49 52 49 49 50 49 47 48 47
34 31 33 33 34 38 34 34 33 33 29 26 25 27 36 39 42 47 50 50 50 49 48 52 53 55 55 55 56 57 56 55 54 52 53 51 52 53 47 47 47 47 46 47
33 33 34 35 34 36 34 32 31 27 27 16 26 29 42 42 43 44 46 48 49 49 50 48 49 51 51 53 54 55 54 53 53 52 52 52 51 48 46 46 46 45 45 45
31 32 32 35 32 33 33 30 19 15 12 20 23 26 43 44 45 45 47 47 47 47 47 47 47 47 48 49 51 53 53 51 51 50 52 52 51 50 49 47 47 44 44 44
24 22 31 34 35 32 30 31 23 15 16 23 25 24 36 40 43 43 43 45 45 46 46 46 47 45 46 47 49 52 50 50 50 50 51 52 51 51 51 48 47 47 46 47
19 25 30 33 33 37 30 26 32 23 13 18 26 30 37 42 42 43 44 43 45 45 46 46 46 45 45 46 48 51 49 48 48 49 50 50 48 48 48 47 47 46 47 45
30 23 28 30 33 31 32 33 26 21 13 12 27 27 34 43 44 43 42 41 43 45 45 44 43 44 44 44 46 48 49 48 48 49 49 49 48 49 49 46 45 44 45 44
28 30 22 27 23 27 28 26 24 25 24 20 17 28 35 36 38 38 37 38 39 40 40 40 41 40 41 42 43 44 45 44 45 47 47 47 46 47 46 46 46 45 44 43
30 26 23 20 24 27 29 33 28 21 19 19 22 26 37 37 38 37 36 38 38 38 38 39 40 40 40 40 41 42 42 42 44 46 44 44 44 44 45 45 45 44 43 42
28 25 12 22 24 24 18 26 30 28 26 18 21 29 37 36 35 33 32 33 34 34 34 35 36 37 38 39 39 40 41 41 41 41 41 40 41 43 44 44 42 42 42 41
30 27 23 23 26 20 17 20 28 31 24 31 28 32 33 34 33 29 29 30 31 31 32 32 32 33 34 35 36 38 40 40 40 39 39 40 41 42 42 42 41 41 41 40
26 19 28 28 29 25 21 20 24 25 32 29 37 34 37 36 31 28 29 29 28 28 28 29 29 30 31 32 33 34 35 37 39 39 38 39 39 39 39 39 39 40 39 40
23 18 23 24 31 31 28 29 24 29 31 33 35 35 38 33 30 28 27 27 26 26 27 27 28 28 29 29 29 31 32 33 35 37 38 38 38 38 38 38 38 38 38 37
18 21 16 14 25 27 23 29 22 28 32 34 28 35 33 30 26 25 26 26 26 26 26 26 26 26 28 27 27 27 30 32 33 33 35 37 37 36 36 37 37 37 37 37
20 19 19 15 14 9 25 23 25 31 26 26 29 23 27 26 26 26 27 26 26 26 25 26 25 26 27 27 26 29 30 29 29 29 30 32 33 33 34 33 35 35 35 35
25 21 17 14 12 22 27 20 17 18 17 22 21 23 24 25 26 23 27 27 26 26 25 25 25 26 26 25 25 28 27 26 27 27 28 28 30 31 32 32 34 35 34 34
27 25 17 12 10 8 15 21 25 24 11 22 23 22 22 27 21 20 24 26 25 25 25 23 24 26 24 23 23 25 24 23 21 23 25 28 29 30 31 33 34 34 35 35
6 9 9 8 9 14 20 24 26 13 12 22 22 21 20 19 20 22 25 25 25 24 23 23 22 22 22 22 21 20 22 19 21 21 23 27 29 29 31 33 32 33 34 34
10 5 4 7 8 6 23 24 18 20 24 23 20 19 19 20 21 21 22 22 22 21 21 21 19 19 19 18 18 16 17 18 18 19 21 23 28 30 31 31 32 31 33 32
4 11 8 12 13 21 24 25 22 24 22 20 19 19 18 18 18 20 19 20 19 18 19 18 16 17 16 15 15 13 14 16 14 16 18 21 25 29 30 30 30 30 32 32
11 14 17 15 14 17 19 19 20 21 19 20 19 18 17 15 18 18 19 18 18 17 16 15 15 14 13 14 14 13 14 13 12 12 15 19 21 24 29 30 30 31 30 31
18 14 10 15 21 19 16 15 16 19 18 17 17 16 15 15 15 16 15 15 15 14 14 12 12 13 12 12 11 11 12 10 9 11 14 17 20 22 26 29 29 30 32 33
12 10 14 15 11 11 14 14 13 13 12 13 12 11 13 12 11 12 11 12 11 11 10 9 10 9 8 8 8 9 9 9 7 9 12 14 17 20 24 27 28 33 34 35
MSLP
1012.73 1012.90 1012.32 1011.80 1010.79 1010.88 1010.49 1010.43 1010.04 1009.54 1009.07 1009.18 1008.35 1006.40 1005.49 1004.61 1004.44 1004.08 1003.61 1002.80 1002.59 1002.21 1000.70 1002.14 1002.38 1003.24 1004.21 1005.12 1005.90 1006.61 1007.29 1008.12 1009.55 1010.76 1011.81 1012.70 1013.15 1013.90 1014.21 1014.66 1014.70 1015.15 1015.58 1015.93
1013.22 1011.59 1010.92 1011.13 1011.35 1011.18 1011.06 1011.05 1010.23 1009.97 1009.45 1009.44 1008.23 1004.88 1004.36 1003.83 1002.13 1002.01 1001.50 1001.11 1000.69 1000.26 1000.19 1000.55 1001.22 1002.16 1002.65 1003.22 1004.19 1005.24 1005.96 1006.96 1008.10 1009.17 1010.00 1011.07 1011.94 1012.99 1013.40 1014.08 1014.50 1014.94 1015.31 1015.63
1011.34 1009.90 1010.01 1010.87 1011.17 1011.47 1010.99 1010.82 1010.61 1010.45 1010.04 1009.43 1008.80 1004.33 1002.62 1001.12 1000.38 1000.31 999.95 999.69 999.50 999.05 998.98 999.81 1000.40 1000.82 1001.70 1001.96 1002.13 1003.31 1004.51 1005.63 1006.67 1007.81 1009.47 1010.77 1011.78 1012.60 1013.23 1013.69 1014.19 1014.66 1014.97 1015.40
1010.89 1009.57 1010.13 1010.67 1010.44 1010.80 1010.76 1010.19 1010.61 1010.93 1011.26 1010.53 1009.37 1004.80 1001.28 1000.60 999.69 999.30 998.97 998.48 998.07 998.36 998.59 998.97 999.40 1000.00 1000.24 1000.47 1001.63 1002.25 1003.31 1004.38 1005.66 1006.98 1008.04 1008.79 1009.46 1010.76 1011.46 1012.10 1013.14 1013.98 1014.50 1014.95
1008.36 1009.15 1009.61 1009.67 1008.92 1010.05 1009.74 1009.99 1010.74 1011.18 1011.42 1011.08 1009.75 1008.50 999.70 1000.09 999.65 998.91 997.84 997.61 997.92 997.91 998.27 998.22 998.47 998.72 999.39 1000.23 1000.77 1001.55 1002.55 1003.48 1004.23 1005.64 1006.55 1007.73 1008.58 1009.55 1010.58 1011.63 1012.59 1013.46 1014.11 1014.51
1008.68 1008.72 1008.78 1008.51 1008.96 1009.11 1009.97 1010.57 1011.45 1012.00 1012.19 1011.56 1008.68 1007.81 996.41 999.52 998.78 997.93 997.52 997.61 997.62 997.80 998.00 997.87 998.18 998.56 999.19 999.76 1000.34 1001.13 1001.95 1002.70 1003.66 1004.57 1005.71 1006.70 1007.66 1008.78 1010.07 1011.11 1012.03 1012.75 1013.53 1014.17
1008.86 1008.42 1008.27 1008.30 1009.18 1009.63 1009.64 1010.49 1012.09 1012.71 1013.02 1010.10 1008.40 1007.17 998.85 998.92 998.50 998.10 998.03 998.14 997.95 997.78 997.84 997.99 998.20 998.46 998.91 999.44 999.95 1000.52 1001.29 1002.18 1003.04 1003.92 1004.76 1005.54 1006.53 1007.67 1008.51 1009.64 1010.67 1011.77 1012.76 1013.45
1008.57 1008.28 1007.70 1007.35 1006.92 1007.75 1009.09 1008.90 1009.46 1010.01 1010.66 1009.52 1008.62 1004.97 999.88 998.63 998.08 997.77 998.18 998.49 998.22 998.00 997.84 998.07 998.27 998.50 998.84 999.21 999.67 1000.24 1001.07 1001.91 1002.90 1003.81 1004.40 1005.17 1006.02 1006.72 1007.61 1008.55 1009.51 1010.52 1011.38 1011.99
1007.85 1007.68 1007.24 1007.25 1006.97 1006.56 1008.55 1008.36 1007.63 1008.58 1009.63 1009.05 1006.23 1002.59 1000.32 998.61 998.21 997.91 998.19 998.24 998.24 998.37 998.42 998.48 998.60 998.88 999.13 999.34 999.56 999.95 1000.82 1001.68 1002.45 1003.06 1003.91 1004.69 1005.58 1006.36 1007.23 1008.17 1009.01 1009.91 1010.71 1011.41
1006.44 1007.21 1007.45 1007.46 1007.46 1007.20 1006.62 1007.12 1007.78 1008.80 1008.82 1008.02 1004.94 1002.74 1000.67 999.24 998.61 998.87 999.01 999.29 999.50 999.31 999.49 999.36 999.52 999.84 999.95 1000.00 1000.13 1000.40 1000.81 1001.30 1001.97 1002.77 1003.61 1004.31 1004.93 1005.79 1006.73 1007.80 1008.65 1009.42 1010.12 1010.86
1006.42 1006.63 1008.09 1008.06 1007.56 1006.74 1007.04 1006.89 1007.09 1007.01 1006.97 1005.83 1004.82 1001.82 999.82 999.67 1000.04 1000.59 1001.04 1000.80 1000.65 1000.71 1001.06 1000.78 1000.40 1000.46 1000.61 1000.68 1000.66 1000.80 1001.15 1001.62 1002.25 1002.81 1003.46 1004.10 1004.70 1005.43 1006.27 1007.00 1007.67 1008.48 1009.35 1010.18
1007.11 1006.45 1006.83 1006.70 1006.59 1006.53 1006.07 1005.28 1005.34 1005.50 1005.86 1005.30 1004.24 1001.55 1000.48 1000.33 1000.86 1001.52 1002.42 1002.59 1002.66 1002.54 1002.65 1002.74 1002.19 1001.61 1001.60 1001.80 1001.86 1001.79 1001.62 1001.71 1002.01 1002.57 1003.14 1003.80 1004.49 1005.19 1005.83 1006.36 1006.99 1007.79 1008.64 1009.62
1007.76 1006.61 1006.50 1006.41 1006.79 1006.81 1006.70 1005.77 1004.97 1004.63 1004.43 1003.84 1003.58 1001.61 1000.97 1001.11 1001.83 1002.91 1003.51 1004.18 1004.38 1004.48 1004.33 1003.96 1003.82 1003.36 1003.20 1002.95 1002.81 1002.70 1002.68 1002.58 1002.58 1002.82 1003.21 1003.75 1004.26 1004.74 1005.16 1005.79 1006.55 1007.33 1008.19 1009.02
1008.90 1006.72 1006.07 1005.21 1004.33 1005.06 1006.13 1005.21 1004.61 1003.95 1003.52 1002.31 1001.65 1001.49 1001.82 1002.11 1003.04 1004.04 1004.66 1005.01 1005.26 1005.56 1005.87 1005.69 1005.52 1005.30 1004.90 1004.50 1004.22 1003.91 1003.38 1003.21 1003.12 1003.02 1003.34 1003.77 1004.14 1004.58 1005.05 1005.54 1006.18 1006.85 1007.59 1008.41
1011.02 1008.48 1006.02 1005.03 1004.72 1004.44 1004.52 1004.21 1003.85 1003.68 1002.08 1001.74 1000.45 1000.80 1001.23 1002.30 1003.76 1005.33 1005.96 1006.03 1005.93 1006.22 1006.26 1006.60 1006.84 1006.47 1006.18 1005.93 1005.50 1005.07 1004.89 1004.10 1003.75 1003.60 1003.56 1003.58 1003.99 1004.59 1005.15 1005.62 1006.08 1006.67 1007.26 1007.80
1010.65 1009.55 1007.73 1005.08 1003.89 1003.64 1003.76 1003.79 1003.90 1003.13 1002.53 1002.08 1001.21 1001.02 1001.91 1003.73 1004.79 1005.97 1006.86 1007.43 1007.63 1007.72 1007.73 1007.73 1007.76 1007.31 1007.07 1007.17 1007.02 1006.48 1005.83 1005.13 1004.43 1004.04 1004.05 1004.01 1004.07 1004.15 1004.32 1004.99 1005.68 1006.22 1006.74 1007.31
1011.83 1010.00 1008.60 1006.42 1005.29 1004.12 1003.60 1003.23 1003.41 1002.91 1002.49 1002.55 1002.83 1002.34 1003.52 1004.82 1005.93 1007.13 1007.93 1008.57 1008.86 1008.91 1008.68 1008.66 1008.64 1008.51 1008.35 1008.26 1007.99 1007.63 1006.62 1005.89 1005.22 1004.72 1004.53 1004.35 1004.33 1004.49 1004.71 1005.04 1005.29 1005.55 1005.96 1006.50
1011.26 1010.47 1009.44 1007.35 1006.15 1004.33 1003.97 1003.90 1003.57 1002.79 1004.03 1004.23 1004.57 1005.48 1005.62 1006.61 1007.65 1008.18 1008.85 1009.35 1009.74 1009.94 1009.68 1009.64 1009.75 1009.54 1009.28 1008.88 1008.53 1008.12 1007.52 1006.77 1006.24 1005.63 1005.28 1005.14 1004.91 1004.66 1004.57 1004.79 1004.98 1005.17 1005.51 1005.78
1011.42 1010.66 1009.35 1008.43 1007.41 1005.54 1004.83 1006.55 1006.98 1005.84 1006.86 1007.12 1007.11 1007.46 1007.63 1008.01 1008.49 1009.14 1010.13 1010.33 1010.62 1010.34 1010.50 1010.70 1010.79 1010.33 1009.70 1009.09 1008.99 1008.67 1008.14 1007.65 1007.40 1006.90 1006.25 1005.83 1005.41 1004.96 1004.59 1004.59 1004.64 1004.84 1005.21 1005.45
1011.73 1010.91 1011.00 1009.52 1008.67 1007.73 1008.66 1008.21 1007.74 1007.18 1008.16 1009.21 1009.41 1009.00 1008.70 1008.31 1009.27 1010.69 1011.19 1011.31 1011.41 1011.15 1011.07 1011.22 1011.10 1010.50 1010.22 1010.18 1009.87 1009.24 1008.95 1008.60 1008.46 1007.88 1007.28 1006.50 1005.70 1004.96 1004.41 1004.17 1004.14 1004.27 1004.49 1004.72
1013.37 1012.15 1011.34 1010.73 1010.23 1009.36 1009.44 1008.66 1007.84 1008.54 1010.71 1010.62 1011.09 1010.99 1010.43 1010.67 1011.90 1012.26 1012.24 1012.09 1012.17 1011.90 1011.72 1011.71 1011.64 1011.41 1011.42 1011.15 1011.01 1010.65 1010.21 1009.55 1009.08 1008.34 1007.66 1006.88 1006.09 1005.34 1004.19 1003.61 1003.58 1003.73 1003.98 1004.20
1014.68 1013.76 1012.51 1011.19 1010.60 1010.32 1009.86 1009.29 1010.34 1010.95 1010.80 1011.56 1012.33 1012.65 1012.29 1012.54 1012.97 1013.22 1013.14 1013.13 1013.12 1012.65 1012.48 1012.64 1012.74 1012.71 1012.75 1012.73 1012.26 1011.61 1011.03 1010.47 1009.68 1008.81 1007.60 1006.64 1005.83 1005.14 1004.34 1003.45 1003.03 1003.32 1003.67 1003.84
1014.89 1014.40 1013.55 1012.71 1011.33 1010.86 1011.06 1010.96 1011.35 1011.36 1011.94 1013.11 1013.69 1013.84 1013.97 1013.96 1013.97 1013.98 1014.05 1013.80 1013.61 1013.63 1013.70 1013.79 1013.72 1013.45 1013.29 1013.14 1012.91 1012.46 1012.02 1011.32 1010.62 1009.66 1008.59 1007.35 1006.14 1005.30 1004.44 1003.51 1003.04 1003.08 1003.38 1003.57
1014.77 1014.02 1013.56 1013.28 1012.09 1011.94 1012.24 1012.59 1012.62 1012.94 1013.28 1014.00 1014.66 1014.79 1014.90 1014.99 1014.75 1014.72 1014.59 1014.25 1014.13 1014.45 1014.34 1014.33 1014.23 1014.07 1013.61 1013.50 1013.42 1013.24 1012.69 1012.08 1011.47 1010.45 1009.15 1007.92 1006.37 1005.19 1004.62 1004.19 1003.58 1003.23 1003.10 1003.02
1014.79 1014.62 1013.97 1013.61 1013.14 1013.21 1013.68 1014.24 1014.46 1014.25 1014.62 1015.05 1015.37 1015.44 1015.45 1015.39 1015.13 1015.30 1015.24 1015.31 1015.30 1015.15 1015.05 1015.37 1015.26 1014.61 1014.15 1013.98 1013.87 1013.56 1013.35 1012.73 1011.85 1010.77 1009.46 1008.17 1007.27 1006.00 1004.89 1004.37 1003.99 1003.37 1002.95 1002.52
1015.03 1015.09 1015.32 1015.04 1015.28 1015.44 1015.40 1015.82 1015.98 1015.75 1016.18 1016.28 1016.31 1016.19 1015.84 1015.50 1015.74 1016.08 1016.30 1016.31 1016.23 1016.20 1016.11 1015.80 1015.62 1015.37 1014.95 1014.78 1014.57 1014.14 1013.62 1012.89 1012.30 1011.20 1009.61 1008.64 1007.77 1006.79 1005.33 1004.40 1003.58 1003.25 1002.63 1002.21
Wind_Speed
4 4 12 15 21 1 4 4 5 3 2 3 9 21 17 17 10 12 17 18 18 17 23 14 18 18 17 16 17 18 19 17 13 9 9 6 7 6 5 6 8 9 8 9
3 18 16 7 5 7 6 5 11 6 4 4 8 27 18 16 23 20 21 21 22 21 12 16 16 17 21 21 21 20 20 19 16 12 11 5 7 4 5 6 6 8 9 9
14 8 7 13 7 11 10 18 6 9 5 4 6 25 15 10 13 13 17 21 19 22 21 11 15 19 18 22 25 22 21 21 20 17 10 5 5 4 4 5 5 7 9 9
12 6 8 7 11 10 16 10 8 6 3 6 1 18 8 5 15 8 11 15 18 14 12 11 14 16 20 20 17 21 22 21 19 19 16 16 13 10 7 8 6 7 9 9
12 11 9 11 10 14 7 6 8 4 4 3 3 4 5 3 6 9 14 13 10 9 9 12 14 16 14 15 17 17 19 20 21 20 19 15 13 9 5 5 10 9 7 9
5 1 6 8 3 7 9 8 7 5 3 4 11 9 32 8 9 6 3 3 2 1 5 7 7 7 9 11 14 15 18 19 19 21 20 20 17 13 9 9 9 8 7 7
3 7 4 4 7 3 3 8 0 3 1 11 2 6 22 13 11 7 9 7 7 7 7 4 5 6 8 12 13 14 17 18 18 20 20 20 18 17 16 14 11 11 8 7
9 7 13 9 9 11 8 9 9 11 7 4 3 14 10 9 11 10 7 9 7 7 4 3 5 6 7 9 11 14 15 15 15 17 18 16 16 12 11 12 10 10 10 10
7 7 0 2 1 9 8 10 5 7 2 3 7 9 9 13 14 9 6 5 6 3 2 3 2 2 5 7 10 14 14 13 15 16 15 15 13 13 12 12 10 9 9 8
5 3 0 1 1 1 6 4 4 2 3 5 8 7 8 12 7 6 10 8 7 7 7 7 6 5 2 2 3 7 11 14 15 14 13 13 14 14 12 10 11 11 10 10
3 5 1 2 8 10 5 5 2 4 6 8 3 7 6 3 3 8 8 10 11 10 8 8 8 7 6 4 3 5 7 8 10 12 12 12 12 12 11 12 13 13 11 12
7 2 8 12 2 2 4 8 8 7 7 3 3 8 5 5 8 11 10 12 13 14 13 12 11 10 9 6 5 2 5 7 9 10 10 11 10 11 12 13 13 12 12 11
5 5 2 1 2 3 4 5 4 5 4 7 7 7 5 6 9 10 11 11 11 13 14 14 15 15 14 14 10 6 3 3 4 5 8 8 10 12 13 12 11 11 11 11
21 6 6 15 10 7 6 9 15 15 6 13 8 4 3 5 7 7 9 10 11 12 13 13 13 13 14 13 13 13 10 4 2 5 6 8 9 10 9 9 10 12 12 13
10 10 12 20 20 3 5 7 14 16 24 17 23 14 9 7 7 6 6 9 12 15 16 15 14 13 14 14 13 12 12 10 5 4 5 7 7 6 6 7 8 9 11 10
2 7 16 16 16 17 21 12 11 21 20 20 20 13 5 10 12 11 11 10 11 12 13 14 15 15 15 15 14 13 12 11 9 5 5 4 4 7 10 10 9 10 11 11
5 6 10 5 13 15 13 12 10 8 6 13 18 14 3 7 11 11 10 10 10 11 11 14 14 14 14 14 14 13 13 11 10 8 7 5 3 5 6 5 9 12 13 12
14 12 6 7 7 7 3 13 7 15 11 11 6 8 8 9 11 12 12 11 10 10 11 11 11 11 11 12 13 12 11 12 12 12 11 10 7 5 5 6 10 10 9 13
10 8 5 5 7 10 12 12 9 6 7 10 7 7 4 10 10 13 12 11 10 10 10 9 9 9 12 14 14 12 11 11 13 15 14 12 10 9 5 7 9 8 8 9
8 9 4 4 5 3 6 11 8 5 4 8 9 11 13 9 4 4 10 9 9 10 10 11 13 12 13 14 14 14 12 12 13 14 13 13 11 9 8 8 8 7 7 10
6 5 3 1 3 1 8 13 9 1 4 7 8 9 12 10 7 6 9 9 9 10 12 12 12 12 13 15 15 13 13 14 14 13 12 11 9 10 8 7 4 6 8 7
4 3 4 2 2 6 7 3 5 2 4 5 4 6 6 6 6 8 8 9 10 11 13 13 11 10 11 11 11 13 13 14 14 15 13 13 12 10 8 7 4 3 7 8
4 4 3 4 3 2 2 2 6 4 5 4 4 5 5 5 6 7 8 8 7 9 10 10 11 10 6 8 10 12 13 14 16 14 13 11 11 10 10 8 3 3 6 7
5 3 5 5 6 2 3 6 7 7 7 6 5 4 3 2 5 6 7 8 9 9 9 10 12 11 10 9 11 10 12 12 12 13 12 12 11 11 10 8 4 4 5 6
8 2 4 5 5 3 4 5 5 5 6 5 5 5 5 6 6 7 8 8 8 10 9 9 10 11 13 11 11 10 11 11 12 11 10 10 9 9 9 7 7 5 6 7
3 5 2 5 2 2 4 4 8 5 5 6 7 8 8 9 9 8 7 7 8 8 9 10 10 10 11 12 13 11 10 11 11 13 10 9 9 9 7 8 8 11 15 14
Wind_Direction
213 168 205 200 210 247 147 217 231 236 170 241 237 263 261 266 257 245 255 255 254 243 243 220 209 204 194 191 188 189 181 182 169 164 169 175 188 185 183 189 181 175 171 166
107 233 219 196 217 233 244 270 257 277 258 202 294 277 270 259 257 241 246 251 247 247 246 220 205 196 197 190 190 190 191 177 180 178 177 169 167 178 180 178 180 181 175 170
198 210 170 186 180 203 232 234 224 239 331 256 321 278 268 242 258 250 248 246 252 243 250 216 202 201 197 199 192 190 187 180 180 177 154 108 112 96 149 178 180 190 180 173
237 196 143 179 211 169 240 196 180 188 124 245 67 284 214 220 252 222 238 238 245 245 242 223 205 203 204 207 197 191 186 180 179 173 174 174 182 175 187 174 175 177 179 175
226 172 181 195 198 180 232 139 164 149 171 16 199 260 258 64 270 264 240 244 257 247 236 240 212 205 203 195 196 193 185 182 178 178 180 180 183 178 147 149 165 175 176 178
242 138 178 197 85 163 150 85 60 56 104 281 180 166 278 217 219 259 249 189 214 229 272 256 230 191 190 187 187 188 186 184 178 178 180 184 180 165 155 163 172 176 175 178
127 210 178 155 99 60 149 123 344 339 3 236 217 189 251 307 273 229 258 278 283 298 290 266 219 191 173 180 182 182 184 185 179 180 183 184 181 177 175 173 177 168 172 187
180 275 168 179 191 165 198 174 170 194 191 227 103 236 249 231 280 258 248 260 287 309 308 288 219 202 185 178 175 180 181 180 177 181 184 186 183 184 184 178 170 179 184 186
155 262 147 329 179 150 189 220 141 99 54 49 219 275 272 270 272 308 329 282 256 250 351 8 16 208 197 177 180 178 176 173 178 182 180 184 178 176 177 173 171 177 178 169
235 278 210 129 259 301 159 177 106 6 167 227 262 281 237 296 303 359 7 6 335 16 11 22 19 8 352 175 155 171 179 177 178 178 180 182 180 179 175 166 174 176 176 167
180 174 92 81 216 186 148 181 212 143 169 181 240 259 222 291 41 53 14 32 32 35 16 13 16 20 16 18 149 159 161 154 164 173 180 179 182 179 169 177 182 183 174 173
243 198 211 203 254 350 329 209 166 143 227 238 154 264 4 53 103 70 34 35 35 38 32 21 23 28 26 18 6 228 174 164 173 175 170 180 170 173 179 189 189 177 176 176
325 245 241 66 4 17 213 215 231 95 104 202 149 262 354 82 71 44 55 34 33 30 25 23 17 23 25 24 14 2 321 219 165 156 165 166 179 186 195 192 180 178 171 174
337 213 245 241 218 138 188 201 204 202 208 220 210 143 271 55 70 41 40 39 34 35 29 24 19 16 17 18 15 7 4 326 222 176 177 193 200 198 195 186 182 178 177 176
1 292 270 236 260 177 205 213 202 207 222 215 230 214 217 156 108 75 58 44 38 25 21 19 15 17 16 11 9 6 356 0 330 240 201 197 180 177 172 182 184 179 183 182
347 297 301 302 264 247 248 227 201 209 227 240 257 254 99 88 84 54 41 42 49 39 25 16 11 12 16 10 360 352 351 347 338 314 270 241 213 193 191 187 184 180 186 181
276 297 333 268 342 293 252 231 192 197 211 223 238 254 2 62 61 55 56 44 42 40 37 20 14 9 8 4 357 348 347 349 358 6 353 329 249 226 216 200 187 195 196 180
254 260 248 277 352 268 19 15 327 209 62 5 331 48 47 95 91 68 49 43 37 23 24 24 7 357 3 5 2 349 1 5 6 9 8 3 340 260 225 188 203 207 191 194
257 269 292 234 225 287 313 18 331 349 78 13 38 29 40 143 111 62 36 33 25 23 18 15 7 359 360 4 358 353 4 13 9 4 354 344 336 318 248 217 219 214 200 200
321 241 218 341 288 270 337 323 308 288 67 8 15 26 7 146 152 64 16 20 15 18 19 11 0 2 11 9 357 353 358 7 4 350 338 329 320 313 288 239 222 209 203 216
325 320 206 278 245 256 327 319 342 3 62 47 32 17 29 47 29 11 0 8 11 13 8 13 8 10 7 0 355 356 350 357 343 336 329 328 325 312 292 268 215 205 208 197
253 289 275 300 253 251 342 21 67 245 100 83 69 28 23 14 11 360 351 354 358 5 4 10 1 359 1 358 353 350 352 342 340 332 332 336 335 335 315 284 241 194 201 200
303 212 263 236 284 185 355 345 54 45 79 71 86 55 19 356 344 337 337 355 2 11 359 359 347 342 350 360 357 347 341 340 334 329 328 328 331 337 334 323 260 190 208 213
278 246 266 351 315 358 76 63 65 56 74 70 63 60 63 347 320 324 329 345 348 351 353 355 341 336 339 351 347 337 333 337 328 324 324 323 333 342 342 328 293 246 215 216
260 323 266 248 243 122 94 60 26 57 55 34 13 15 11 349 340 335 329 329 334 336 344 339 324 325 330 335 334 337 331 332 329 324 322 331 329 331 329 335 310 269 246 227
179 219 211 270 111 296 53 30 6 15 11 8 357 341 346 346 332 330 312 311 311 311 316 313 314 316 319 321 319 324 327 336 332 324 331 332 328 317 333 336 326 303 274 256